Snowfall_Accumulation
0.3 0.3 0.3 0.2 0.3 0.1 0.0 0.0 0.0 0.0 0.0 0.0 0.0 0.0 0.0 0.0 0.0 0.0 0.0 0.0 0.0 0.0 0.0 0.0 0.0 0.0 0.0 0.0 0.0 0.0 0.0 0.2 0.4 0.1 0.0 0.1 0.0 0.0 0.0 0.0 0.0 0.0 0.0
0.7 0.5 0.3 0.3 0.3 0.3 0.1 0.1 0.1 0.0 0.0 0.0 0.0 0.0 0.0 0.0 0.0 0.0 0.0 0.0 0.0 0.0 0.0 0.0 0.0 0.0 0.0 0.0 0.0 0.0 0.1 0.1 0.5 0.9 0.6 0.5 0.4 0.2 0.2 0.2 0.1 0.1 0.1
0.7 0.9 0.7 0.3 0.2 0.3 0.3 0.1 0.0 0.0 0.0 0.0 0.0 0.0 0.0 0.0 0.0 0.0 0.1 0.1 0.1 0.0 0.0 0.0 0.1 0.1 0.1 0.1 0.1 0.1 0.3 0.4 0.9 1.4 0.7 0.3 0.3 0.2 0.2 0.1 0.1 0.1 0.0
0.5 0.7 0.9 1.0 0.3 0.3 0.4 0.3 0.1 0.1 0.1 0.1 0.1 0.0 0.1 0.3 0.2 0.2 0.1 0.1 0.1 0.1 0.1 0.1 0.1 0.1 0.3 0.5 0.7 0.7 1.4 1.2 1.1 1.5 1.5 1.1 0.8 0.5 0.5 0.6 0.5 0.3 0.2
0.4 0.4 0.6 0.9 0.6 0.5 0.4 0.4 0.5 0.1 0.1 0.1 0.1 0.1 0.2 0.3 0.2 0.2 0.2 0.2 0.2 0.2 0.2 0.3 0.4 0.4 0.3 0.5 0.9 1.3 1.3 1.7 2.3 2.8 2.6 1.8 1.0 0.7 0.6 0.7 0.8 0.5 0.3
0.4 0.3 0.5 0.8 0.6 0.8 0.8 0.6 0.3 0.6 0.5 0.2 0.4 0.2 0.2 0.3 0.1 0.2 0.3 0.5 0.4 0.6 0.7 0.7 0.9 0.8 0.5 0.5 0.6 0.9 1.7 2.9 3.6 4.0 3.6 2.7 1.4 0.9 0.8 1.1 1.6 2.2 1.6
0.3 0.2 0.4 0.6 0.5 0.6 0.8 1.2 0.6 0.7 0.7 0.7 0.5 0.3 0.5 0.4 0.1 0.2 0.5 0.7 1.0 1.0 1.1 1.1 1.0 0.9 0.8 0.6 0.6 1.1 1.6 2.1 2.8 3.1 2.9 1.8 1.4 1.2 2.0 3.1 3.1 3.3 2.4
0.4 0.3 0.4 0.4 0.6 0.9 1.4 1.8 1.8 1.4 1.4 1.7 1.4 1.3 1.0 0.9 0.5 0.6 0.9 1.1 1.0 1.1 0.8 0.7 0.7 0.5 0.5 1.0 1.5 2.0 1.6 1.2 1.1 1.0 1.2 1.2 1.2 1.4 2.6 4.1 3.8 2.8 1.1
1.1 1.0 1.2 1.1 1.1 1.8 2.3 2.5 2.4 2.1 1.9 2.3 2.1 2.1 1.7 1.3 0.4 0.4 0.9 1.1 1.1 0.9 0.8 0.7 0.7 0.6 0.8 2.0 2.9 2.9 1.7 0.6 0.4 0.6 1.1 1.0 1.0 1.0 1.1 2.7 3.9 5.1 3.8
1.3 1.3 1.0 1.3 1.5 1.5 2.2 2.2 2.4 2.6 2.1 2.3 2.4 1.8 1.4 1.2 0.5 0.6 0.6 0.8 1.0 0.9 0.9 0.7 0.7 0.9 1.6 2.9 3.2 3.1 2.0 0.9 1.2 1.0 0.6 0.4 0.3 0.2 0.5 2.1 6.1 10.4 8.2
1.5 1.2 1.2 0.9 1.5 1.4 1.5 1.9 1.7 2.4 2.3 1.8 1.5 1.0 0.8 0.5 0.3 0.3 0.6 1.0 1.3 1.5 1.3 0.7 0.5 1.2 2.3 2.8 2.4 1.5 1.6 2.3 2.0 1.0 0.6 0.4 0.4 0.4 0.5 0.9 3.0 9.3 12.5
1.6 1.4 1.5 1.6 1.6 1.2 1.2 1.4 1.5 1.4 1.2 1.2 1.0 0.8 0.5 0.4 0.4 0.4 0.7 1.2 1.7 2.0 1.7 0.9 0.9 1.9 2.1 1.5 1.0 1.0 1.9 2.0 1.3 1.4 1.4 1.3 1.4 1.2 1.2 1.3 1.5 2.8 5.8
1.7 1.8 1.6 1.5 1.4 1.1 1.0 0.9 1.1 1.0 1.1 1.3 1.1 1.1 1.0 0.5 0.4 0.5 0.8 1.4 1.8 1.9 1.6 1.7 1.9 1.6 1.1 0.8 0.7 1.1 1.3 1.8 2.6 3.6 3.6 2.9 2.1 2.1 1.9 2.5 2.6 3.0 3.9
1.4 1.5 1.2 1.3 1.4 1.4 0.7 0.9 1.3 1.5 1.7 1.8 1.7 1.7 1.5 0.9 0.7 0.7 1.2 1.4 1.5 1.6 1.8 1.8 1.5 1.0 0.9 1.1 1.3 1.5 1.7 2.3 3.9 5.1 4.6 3.7 3.2 3.8 4.1 5.4 6.8 7.1 7.8
1.8 1.6 1.4 1.5 1.9 1.6 1.4 1.4 1.6 1.8 1.9 2.2 2.2 2.0 2.1 2.2 1.2 2.0 2.7 2.5 2.9 2.8 2.9 1.8 1.3 1.6 1.5 1.9 2.0 1.8 2.1 2.6 3.5 4.2 4.8 5.0 4.8 5.4 6.4 7.5 9.2 10.3 10.7
2.0 2.0 1.8 1.9 2.0 1.8 1.9 2.0 1.2 1.4 1.1 1.3 1.3 1.8 1.8 1.9 2.0 2.3 2.5 3.0 3.2 2.7 2.5 2.7 2.5 2.6 2.8 2.6 2.7 2.7 3.1 3.4 4.1 5.6 6.1 6.7 7.5 8.1 8.9 9.2 10.7 12.1 11.6
2.5 2.4 2.3 2.1 2.1 2.2 2.2 2.1 2.4 1.8 1.3 1.2 1.0 1.2 1.4 1.6 1.8 2.0 2.5 2.7 2.0 1.8 2.2 3.2 3.4 3.4 3.5 3.5 3.9 4.1 4.4 4.4 5.7 7.6 8.4 9.0 9.9 10.2 10.9 11.6 11.8 11.6 10.4
2.5 2.6 2.3 2.4 2.2 2.1 2.2 2.3 2.1 2.2 2.3 1.9 1.3 1.0 1.1 1.1 1.3 1.7 2.1 1.7 1.7 1.6 2.3 3.0 3.5 3.7 3.8 4.1 4.5 5.5 6.0 6.3 7.2 8.5 9.4 10.0 11.5 12.8 13.2 12.5 11.9 11.4 10.5
3.0 2.9 2.7 2.5 2.3 2.1 2.1 1.9 2.1 2.2 2.2 2.2 2.0 2.1 1.3 1.1 1.3 1.6 1.8 2.0 2.6 2.8 2.8 2.7 2.8 3.2 4.1 4.5 5.1 6.0 7.1 8.3 9.6 11.2 11.6 12.0 12.7 14.6 14.8 12.5 11.4 10.0 9.5
3.1 3.1 2.9 2.6 2.8 2.9 2.8 2.4 2.4 2.2 2.4 2.1 2.1 2.1 2.1 2.5 2.6 2.2 2.1 2.4 3.2 3.3 3.3 3.5 3.3 3.4 4.1 4.8 5.6 6.5 8.0 9.0 10.2 11.3 11.8 12.1 12.6 13.9 13.8 11.5 9.7 9.2 8.5
3.0 3.1 3.0 3.0 3.2 3.2 3.3 3.2 2.9 2.9 2.7 2.5 2.5 2.4 2.8 3.8 3.1 2.7 2.9 3.3 3.5 4.1 4.3 4.3 4.2 4.1 4.9 5.2 6.3 7.2 8.6 9.6 10.4 12.1 12.5 12.1 11.7 11.4 9.7 9.0 8.7 8.7 8.9
2.9 2.9 3.2 3.3 3.3 3.6 3.8 3.9 3.8 3.7 3.3 3.0 2.8 2.8 3.0 2.9 2.7 2.8 3.0 2.8 3.0 3.3 3.8 4.6 4.9 4.8 6.1 8.5 10.4 11.4 10.8 10.4 10.9 12.5 12.8 11.8 10.6 9.6 8.9 9.1 9.0 9.1 9.1
2.6 3.0 3.2 3.3 3.6 3.8 4.1 4.0 4.1 4.2 4.1 3.9 3.8 3.5 3.4 3.4 3.0 3.0 3.0 2.9 2.9 2.9 2.7 3.7 4.8 4.4 5.1 7.4 10.3 14.3 16.1 14.1 12.9 13.8 14.5 12.8 11.0 10.3 10.4 10.6 9.7 9.6 9.3
2.8 2.9 3.2 3.3 3.5 3.9 4.0 4.1 4.1 4.1 4.3 4.2 4.1 3.9 3.9 3.7 3.9 3.4 3.3 3.1 3.2 3.1 3.2 3.8 4.6 4.9 5.5 7.7 9.6 11.4 13.1 14.5 16.3 16.3 15.8 15.5 13.2 11.2 11.0 10.7 9.6 9.1 9.1
3.0 3.2 3.6 3.5 3.8 3.8 4.1 4.1 4.1 4.2 4.4 4.2 4.2 4.0 4.0 4.0 3.8 3.7 3.7 3.7 3.5 3.5 3.2 3.8 4.8 5.7 6.4 7.8 9.5 10.7 11.3 12.7 14.3 14.7 14.3 13.7 12.3 10.7 10.7 10.5 9.6 9.0 9.0
3.1 3.4 3.6 3.9 4.0 3.8 4.2 4.3 4.4 4.5 4.7 4.7 4.7 4.6 4.8 4.6 4.4 4.2 4.2 4.4 4.6 4.3 3.8 4.0 4.5 5.7 7.1 8.4 8.7 10.0 10.9 10.6 8.9 8.5 10.9 12.5 11.8 10.0 10.2 10.9 10.0 9.5 9.4